Regional Weather Roundup
Issued by NWS

Home | Current Version | Previous Version | Graphics & Text | Print | Product List | Glossary Off
Versions: 1 2 3 4 5 6 7 8 9 10 11 12 13 14 15 16 17 18 19 20 21 22 23 24 25 26 27 28 29 30 31 32 33 34 35 36 37 38 39 40 41 42 43 44 45 46 47 48 49 50

000
ASUS43 KFSD 291410
RWRSD

WEATHER ROUNDUP FOR SOUTH DAKOTA
NATIONAL WEATHER SERVICE SIOUX FALLS SD
900 AM CDT FRI MAY 29 2015

NOTE: "FAIR" INDICATES FEW OR NO CLOUDS BELOW 12,000 FEET WITH NO
SIGNIFICANT WEATHER AND/OR OBSTRUCTIONS TO VISIBILITY.


SDZ001>005-009-010-012>017-291500-
NORTHWEST AND NORTH CENTRAL SOUTH DAKOTA

CITY           SKY/WX    TMP DP  RH WIND       PRES   REMARKS
BUFFALO          N/A     45  42  89 N18       30.16R
FAITH            N/A     47  44  90 N24G31    30.15R
MOBRIDGE       CLOUDY    52  48  86 N20G32    30.09R
$$

SDZ012>016-024>037-041>051-057-063-072>074-291500-
SOUTHWEST AND SOUTH CENTRAL SOUTH DAKOTA

CITY           SKY/WX    TMP DP  RH WIND       PRES   REMARKS
RAPID CTY ARPT LGT RAIN  49  48  97 N23G31    30.16R FOG
PIERRE         HVY RAIN  54  53  97 N25       30.02R FOG
CUSTER         LGT RAIN  48  45  89 N6        30.17S
ELLSWORTH AFB  LGT RAIN  49  49 100 N22       30.17R VSB 1
PHILIP         LGT RAIN  51  49  92 N22G32    30.09R
PINE RIDGE     CLOUDY    56  52  86 N13       30.11R
SPEARFISH      LGT RAIN  43  43 100 NW10      30.25R
WINNER         CLOUDY    60  55  83 N17       29.98R
$$

SDZ004>011-016>023-039-040-291500-
NORTHEAST SOUTH DAKOTA

CITY           SKY/WX    TMP DP  RH WIND       PRES   REMARKS
ABERDEEN       LGT RAIN  52  49  89 N26G37    30.02R
WATERTOWN      CLOUDY    57  55  93 N17G30    29.94R
BROOKINGS      CLOUDY    63  59  88 N7        29.91R
SISSETON         N/A     51  51 100 N23G33    29.99R
$$

SDZ017-020-022-023-036>040-048>070-291500-
SOUTHEAST SOUTH DAKOTA

CITY           SKY/WX    TMP DP  RH WIND       PRES   REMARKS
SIOUX FALLS    LGT RAIN  64  61  90 NW3       29.89R
HURON            N/A    N/A N/A N/A MISG      29.92R
CHAMBERLAIN    CLOUDY    61  59  94 N12       29.95R
MITCHELL       LGT RAIN  64  62  93 N10       29.90R FOG
YANKTON        CLOUDY    63  59  88 NW6       29.89S
$$

ABBREVIATIONS USED IN REMARKS
   TC - TEMPERATURE IN CELSIUS
  WCI - WIND CHILL INDEX
   HX - HEAT INDEX
  VSB - VISIBILITY




USA.gov is the U.S. government's official web portal to all federal, state and local government web resources and services.